TimePST,TemperatureF,Dew PointF,Humidity,Sea Level PressureIn,VisibilityMPH,Wind Direction,Wind SpeedMPH,Gust SpeedMPH,PrecipitationIn,Events,Conditions,WindDirDegrees,DateUTC
12:53 AM,26.1,23.0,88,30.17,10.0,SSE,5.8,-,N/A,,Clear,150,2014-02-11 08:53:00
1:53 AM,26.1,24.1,92,30.17,10.0,South,6.9,-,N/A,,Clear,180,2014-02-11 09:53:00
2:53 AM,27.0,23.0,85,30.18,10.0,SSE,5.8,-,N/A,,Clear,160,2014-02-11 10:53:00
3:53 AM,27.0,24.1,89,30.17,10.0,SW,4.6,-,N/A,,Clear,220,2014-02-11 11:53:00
4:53 AM,25.0,23.0,92,30.17,10.0,South,8.1,-,N/A,,Clear,180,2014-02-11 12:53:00
5:53 AM,26.1,21.9,84,30.19,10.0,South,8.1,-,N/A,,Clear,170,2014-02-11 13:53:00
6:53 AM,23.0,21.0,92,30.23,10.0,SSE,9.2,-,N/A,,Clear,160,2014-02-11 14:53:00
7:53 AM,27.0,24.1,89,30.23,10.0,SSE,8.1,-,N/A,,Clear,150,2014-02-11 15:53:00
8:53 AM,32.0,26.1,79,30.23,10.0,South,5.8,-,N/A,,Clear,170,2014-02-11 16:53:00
9:53 AM,36.0,27.0,70,30.22,10.0,SSW,3.5,-,N/A,,Clear,200,2014-02-11 17:53:00
10:53 AM,41.0,23.0,49,30.19,10.0,NNE,4.6,-,N/A,,Clear,30,2014-02-11 18:53:00
11:53 AM,42.1,21.0,43,30.16,10.0,Calm,Calm,-,N/A,,Clear,0,2014-02-11 19:53:00
12:53 PM,44.1,21.0,40,30.12,10.0,NNW,3.5,-,N/A,,Clear,330,2014-02-11 20:53:00
1:53 PM,44.1,23.0,43,30.14,10.0,NNE,11.5,-,N/A,,Clear,30,2014-02-11 21:53:00
2:53 PM,45.0,21.9,40,30.14,10.0,North,6.9,-,N/A,,Clear,360,2014-02-11 22:53:00
3:53 PM,42.1,24.1,49,30.16,10.0,North,8.1,-,N/A,,Clear,10,2014-02-11 23:53:00
4:53 PM,39.0,26.1,60,30.19,10.0,North,6.9,-,N/A,,Clear,360,2014-02-12 00:53:00
5:53 PM,33.1,26.1,75,30.22,10.0,ESE,4.6,-,N/A,,Clear,120,2014-02-12 01:53:00
6:53 PM,30.0,26.1,85,30.28,10.0,Variable,4.6,-,N/A,,Clear,0,2014-02-12 02:53:00
7:53 PM,30.0,26.1,85,30.26,10.0,SSE,5.8,-,N/A,,Clear,160,2014-02-12 03:53:00
8:53 PM,28.9,25.0,85,30.25,10.0,South,5.8,-,N/A,,Clear,180,2014-02-12 04:53:00
9:53 PM,28.9,25.0,85,30.27,10.0,South,5.8,-,N/A,,Clear,190,2014-02-12 05:53:00
10:53 PM,30.0,25.0,82,30.21,10.0,South,10.4,-,N/A,,Scattered Clouds,180,2014-02-12 06:53:00
11:53 PM,30.0,26.1,85,30.22,10.0,South,6.9,-,N/A,,Overcast,180,2014-02-12 07:53:00